West Chester Brandywine Airpo, PA

8:13 PM EST on December 09, 2019 (GMT -0500)
West Chester Brandywine Airpo

Weather History for KOQN - November, 2019

Change the Weather History Date:

Tuesday, November 19, 2019

  Actual Average (WUND) Record (WUND)
Temperature  
Mean Temperature 43 °F -  
Max Temperature 51 °F - - (-1)
Min Temperature 35 °F - - (-1)
Degree Days  
Heating Degree Days 22    
Moisture  
Dew Point 35 °F    
Average Humidity 75    
Maximum Humidity 93    
Minimum Humidity 50    
Precipitation  
Precipitation 0.00 in - - ()
Sea Level Pressure  
Sea Level Pressure 29.80 in    
Wind  
Wind Speed 2 mph (WNW)    
Max Wind Speed 10 mph    
Max Gust Speed -    
Visibility 9 miles    
Events      
Averages and records for this station are not official NWS values.
T = Trace of Precipitation, MM = Missing Value Source: NWS Daily Summary

Daily Weather History Graph

Daily Weather History Graph

Search for Another Location

Airport or City:

Astronomy

Nov. 19, 2019 Rise Set
Actual Time 6:51 AM EST 4:43 PM EST
Civil Twilight 6:22 AM EST 5:12 PM EST
Nautical Twilight 5:49 AM EST 5:45 PM EST
Astronomical Twilight 5:17 AM EST 6:17 PM EST
Moon 11:36 PM EST (11/19) 1:00 PM EST (11/19)
Length of Visible Light 10h 50m
Length of Day
9h 51m
Waning Gibbous, 52% of the Moon is Illuminated
Nov 19
Waning Gibbous
Nov 19
Last Quarter
Nov 26
New
Dec 4
First Quarter
Dec 12
Full

Hourly Weather History & Observations

Time (EST) Temp. Windchill Dew Point Humidity Pressure Visibility Wind Dir Wind Speed Gust Speed Precip Events Conditions
12:15 AM 37.4 °F - 35.6 °F 93% 29.74 in 7.0 mi Calm Calm - N/A   Unknown
12:35 AM 37.4 °F - 35.6 °F 93% 29.73 in 10.0 mi Calm Calm - N/A   Unknown
12:55 AM 37.4 °F - 35.6 °F 93% 29.73 in 7.0 mi Calm Calm - N/A   Unknown
1:15 AM 37.4 °F 34.9 °F 35.6 °F 93% 29.74 in 7.0 mi WSW 3.5 mph - N/A   Unknown
1:35 AM 37.4 °F - 35.6 °F 93% 29.73 in 10.0 mi Calm Calm - N/A   Unknown
1:55 AM 37.4 °F - 35.6 °F 93% 29.74 in 10.0 mi Calm Calm - N/A   Unknown
2:15 AM 37.4 °F 34.9 °F 35.6 °F 93% 29.73 in 10.0 mi West 3.5 mph - N/A   Unknown
2:35 AM 37.4 °F - 35.6 °F 93% 29.73 in 10.0 mi Calm Calm - N/A   Unknown
2:55 AM 37.4 °F - 35.6 °F 93% 29.73 in 10.0 mi Calm Calm - N/A   Unknown
3:15 AM 37.4 °F - 35.6 °F 93% 29.74 in 10.0 mi Calm Calm - N/A   Unknown
3:35 AM 37.4 °F - 35.6 °F 93% 29.73 in 10.0 mi Calm Calm - N/A   Unknown
3:55 AM 39.2 °F 37.0 °F 35.6 °F 87% 29.73 in 10.0 mi West 3.5 mph - N/A   Unknown
4:15 AM 39.2 °F 37.0 °F 35.6 °F 87% 29.74 in 10.0 mi WSW 3.5 mph - N/A   Unknown
4:35 AM 39.2 °F 35.9 °F 35.6 °F 87% 29.73 in 10.0 mi West 4.6 mph - N/A   Unknown
4:55 AM 39.2 °F 37.0 °F 35.6 °F 87% 29.74 in 7.0 mi West 3.5 mph - N/A   Unknown
5:15 AM 39.2 °F 35.9 °F 35.6 °F 87% 29.75 in 7.0 mi West 4.6 mph - N/A   Unknown
5:35 AM 39.2 °F 35.9 °F 35.6 °F 87% 29.76 in 7.0 mi West 4.6 mph - N/A   Unknown
5:55 AM 39.2 °F - 35.6 °F 87% 29.76 in 7.0 mi Calm Calm - N/A   Unknown
6:15 AM 37.4 °F - 35.6 °F 93% 29.77 in 7.0 mi Calm Calm - N/A   Unknown
6:35 AM 37.4 °F - 33.8 °F 87% 29.77 in 7.0 mi Calm Calm - N/A   Unknown
6:55 AM 37.4 °F - 33.8 °F 87% 29.77 in 5.0 mi Calm Calm - N/A   Mist
7:15 AM 35.6 °F - 33.8 °F 93% 29.79 in 4.0 mi Calm Calm - N/A   Mist
7:35 AM 37.4 °F - 35.6 °F 93% 29.79 in 4.0 mi Calm Calm - N/A   Mist
7:55 AM 37.4 °F - 35.6 °F 93% 29.81 in 4.0 mi Calm Calm - N/A   Mist
8:15 AM 37.4 °F 34.9 °F 35.6 °F 93% 29.81 in 4.0 mi West 3.5 mph - N/A   Mist
8:35 AM 37.4 °F 32.8 °F 35.6 °F 93% 29.82 in 4.0 mi WNW 5.8 mph - N/A   Mist
8:55 AM 39.2 °F 35.9 °F 35.6 °F 87% 29.83 in 5.0 mi West 4.6 mph - N/A   Mist
9:15 AM 39.2 °F 37.0 °F 35.6 °F 87% 29.82 in 5.0 mi WNW 3.5 mph - N/A   Mist
9:35 AM 39.2 °F 35.0 °F 35.6 °F 87% 29.82 in 5.0 mi WNW 5.8 mph - N/A   Mist
9:55 AM 41.0 °F 37.1 °F 35.6 °F 81% 29.82 in 5.0 mi NNW 5.8 mph - N/A   Haze
10:15 AM 42.8 °F 39.3 °F 35.6 °F 76% 29.82 in 7.0 mi NW 5.8 mph - N/A   Unknown
10:55 AM 44.6 °F 43.1 °F 35.6 °F 71% 29.82 in 7.0 mi West 3.5 mph - N/A   Unknown
11:15 AM 44.6 °F - 35.6 °F 71% 29.81 in 7.0 mi Calm Calm - N/A   Unknown
11:35 AM 46.4 °F 44.3 °F 37.4 °F 71% 29.81 in 10.0 mi WNW 4.6 mph - N/A   Unknown
11:55 AM 48.2 °F - 37.4 °F 66% 29.80 in 10.0 mi SW 4.6 mph - N/A   Unknown
12:15 PM 50.0 °F - 35.6 °F 58% 29.80 in 10.0 mi WNW 4.6 mph - N/A   Unknown
12:35 PM 50.0 °F - 35.6 °F 58% 29.79 in 10.0 mi West 8.1 mph - N/A   Unknown
12:55 PM 50.0 °F - 33.8 °F 54% 29.79 in 10.0 mi WNW 8.1 mph - N/A   Unknown
1:15 PM 50.0 °F - 33.8 °F 54% 29.79 in 10.0 mi West 9.2 mph - N/A   Unknown
1:35 PM 51.8 °F - 33.8 °F 50% 29.79 in 10.0 mi West 6.9 mph - N/A   Unknown
1:55 PM 51.8 °F - 33.8 °F 50% 29.78 in 10.0 mi WNW 10.4 mph - N/A   Unknown
2:15 PM 51.8 °F - 33.8 °F 50% 29.79 in 10.0 mi West 9.2 mph - N/A   Unknown
2:35 PM 51.8 °F - 33.8 °F 50% 29.79 in 10.0 mi WSW 5.8 mph - N/A   Unknown
2:55 PM 50.0 °F - 33.8 °F 54% 29.79 in 10.0 mi WNW 5.8 mph - N/A   Unknown
3:15 PM 50.0 °F - 33.8 °F 54% 29.79 in 10.0 mi West 5.8 mph - N/A   Unknown
3:35 PM 50.0 °F - 33.8 °F 54% 29.80 in 10.0 mi WNW 5.8 mph - N/A   Unknown
3:55 PM 50.0 °F - 33.8 °F 54% 29.81 in 10.0 mi WNW 5.8 mph - N/A   Unknown
4:15 PM 50.0 °F - 33.8 °F 54% 29.81 in 10.0 mi WNW 3.5 mph - N/A   Unknown
4:35 PM 48.2 °F - 33.8 °F 58% 29.81 in 10.0 mi Calm Calm - N/A   Unknown
5:35 PM 46.4 °F - 33.8 °F 62% 29.83 in 10.0 mi Calm Calm - N/A   Unknown
5:55 PM 44.6 °F - 35.6 °F 71% 29.84 in 10.0 mi Calm Calm - N/A   Unknown
6:35 PM 44.6 °F - 35.6 °F 71% 29.85 in 10.0 mi Calm Calm - N/A   Unknown
7:15 PM 44.6 °F 40.7 °F 33.8 °F 66% 29.86 in 10.0 mi NNE 6.9 mph - N/A   Unknown
7:35 PM 44.6 °F 42.2 °F 33.8 °F 66% 29.86 in 10.0 mi NE 4.6 mph - N/A   Unknown
7:55 PM 44.6 °F 42.2 °F 33.8 °F 66% 29.87 in 10.0 mi NE 4.6 mph - N/A   Unknown
8:15 PM 44.6 °F 43.1 °F 33.8 °F 66% 29.87 in 10.0 mi NE 3.5 mph - N/A   Unknown
8:35 PM 42.8 °F 41.1 °F 33.8 °F 70% 29.87 in 10.0 mi NE 3.5 mph - N/A   Unknown
8:55 PM 42.8 °F - 33.8 °F 70% 29.88 in 10.0 mi Calm Calm - N/A   Unknown
9:15 PM 42.8 °F - 33.8 °F 70% 29.88 in 10.0 mi Calm Calm - N/A   Unknown
9:35 PM 42.8 °F - 33.8 °F 70% 29.88 in 10.0 mi Calm Calm - N/A   Unknown
9:55 PM 42.8 °F - 32.0 °F 66% 29.88 in 10.0 mi Calm Calm - N/A   Unknown
10:15 PM 42.8 °F - 32.0 °F 66% 29.88 in 10.0 mi Calm Calm - N/A   Unknown
10:35 PM 42.8 °F - 33.8 °F 70% 29.87 in 10.0 mi Calm Calm - N/A   Unknown
10:55 PM 42.8 °F - 32.0 °F 66% 29.87 in 10.0 mi Calm Calm - N/A   Unknown
11:15 PM 42.8 °F - 32.0 °F 66% 29.87 in 10.0 mi Calm Calm - N/A   Unknown
11:35 PM 42.8 °F - 33.8 °F 70% 29.87 in 10.0 mi Calm Calm - N/A   Unknown
11:55 PM 41.0 °F - 33.8 °F 76% 29.87 in 10.0 mi Calm Calm - N/A   Unknown